Weather History for KDUX - January, 2014

Change the Weather History Date:

Saturday, January 18, 2014

  Actual Average (KBGD) Record (KBGD)
Temperature  
Mean Temperature 44 °F 39 °F  
Max Temperature 60 °F 52 °F 71 °F (1982)
Min Temperature 28 °F 26 °F -3 °F (1984)
Degree Days  
Heating Degree Days 21 26  
Month to date heating degree days 486  
Since 1 July heating degree days 2023  
Cooling Degree Days 0 0  
Month to date cooling degree days 0  
Year to date cooling degree days 0  
Moisture  
Dew Point 14 °F    
Average Humidity 36    
Maximum Humidity 59    
Minimum Humidity 15    
Precipitation  
Precipitation 0.00 in 0.02 in 0.46 in (1990)
Month to date precipitation 0.29  
Year to date precipitation 0.29  
Snow  
Snow 0.00 in - 6.00 in (1987)
Month to date snowfall  
Since 1 July snowfall  
Snow Depth -    
Sea Level Pressure  
Sea Level Pressure 30.14 in    
Wind  
Wind Speed 13 mph (NW)    
Max Wind Speed 24 mph    
Max Gust Speed 30 mph    
Visibility 10 miles    
Events      
T = Trace of Precipitation, MM = Missing Value Source: NWS Daily Summary

Daily Weather History Graph

Daily Weather History Graph

Search for Another Location

Airport or City:

Trip Planner

Search our weather history database for the weather conditions in past years. The results will help you decide how hot, cold, wet, or windy it might be!

Date:

Astronomy

Jan. 18, 2014 Rise Set
Actual Time 7:56 AM CST 6:00 PM CST
Civil Twilight 7:28 AM CST 6:28 PM CST
Nautical Twilight 6:57 AM CST 6:59 PM CST
Astronomical Twilight 6:26 AM CST 7:30 PM CST
Moon 8:38 PM CST (1/18) 9:03 AM CST (1/18)
Length of Visible Light 10h 59m
Length of Day
10h 04m
Waning Gibbous, 94% of the Moon is Illuminated
Jan 18
Waning Gibbous
Jan 23
Last Quarter
Jan 30
New
Feb 6
First Quarter
Feb 14
Full

Hourly Weather History & Observations

Time (CST) Temp. Windchill Dew Point Humidity Pressure Visibility Wind Dir Wind Speed Gust Speed Precip Events Conditions
12:15 AM 35.4 °F 25.6 °F 16.5 °F 46% 30.05 in 10.0 mi WSW 16.1 mph - N/A   Clear
12:35 AM 35.1 °F 25.2 °F 16.7 °F 47% 30.04 in 10.0 mi WSW 16.1 mph - N/A   Clear
12:55 AM 36.1 °F 26.9 °F 17.4 °F 47% 30.04 in 10.0 mi WSW 15.0 mph - N/A   Clear
1:15 AM 35.6 °F 26.6 °F 17.4 °F 48% 30.03 in 10.0 mi WSW 13.8 mph - N/A   Clear
1:35 AM 34.9 °F 26.2 °F 17.4 °F 49% 30.03 in 10.0 mi WSW 12.7 mph - N/A   Clear
1:55 AM 34.2 °F 25.2 °F 17.4 °F 50% 30.03 in 10.0 mi WSW 12.7 mph - N/A   Clear
2:15 AM 33.3 °F 24.1 °F 17.1 °F 51% 30.03 in 10.0 mi WSW 12.7 mph - N/A   Clear
2:35 AM 33.6 °F 24.1 °F 17.4 °F 52% 30.03 in 10.0 mi WSW 13.8 mph - N/A   Clear
2:55 AM 32.7 °F 22.5 °F 17.6 °F 54% 30.04 in 10.0 mi West 15.0 mph - N/A   Clear
3:15 AM 32.0 °F 22.5 °F 17.4 °F 55% 30.05 in 10.0 mi West 12.7 mph - N/A   Clear
3:35 AM 30.2 °F 20.8 °F 17.1 °F 58% 30.05 in 10.0 mi West 11.5 mph - N/A   Clear
3:55 AM 30.0 °F 20.5 °F 17.1 °F 59% 30.05 in 10.0 mi West 11.5 mph - N/A   Clear
4:15 AM 29.7 °F 19.6 °F 16.7 °F 59% 30.05 in 10.0 mi West 12.7 mph - N/A   Clear
4:35 AM 28.4 °F 19.1 °F 15.8 °F 59% 30.04 in 10.0 mi West 10.4 mph - N/A   Clear
4:55 AM 29.3 °F 19.6 °F 15.8 °F 57% 30.04 in 10.0 mi West 11.5 mph - N/A   Clear
5:15 AM 29.8 °F 20.9 °F 15.8 °F 56% 30.04 in 10.0 mi WNW 10.4 mph - N/A   Clear
5:35 AM 30.0 °F 21.1 °F 15.1 °F 54% 30.04 in 10.0 mi NW 10.4 mph - N/A   Clear
5:55 AM 30.2 °F 20.8 °F 14.9 °F 53% 30.05 in 10.0 mi WNW 11.5 mph - N/A   Clear
6:15 AM 31.5 °F 22.3 °F 14.9 °F 50% 30.05 in 10.0 mi NW 11.5 mph - N/A   Clear
6:35 AM 33.8 °F 25.3 °F 14.9 °F 46% 30.06 in 10.0 mi NNW 11.5 mph - N/A   Clear
6:55 AM 33.1 °F 25.5 °F 14.9 °F 47% 30.07 in 10.0 mi NNW 9.2 mph - N/A   Clear
7:15 AM 34.7 °F 25.5 °F 15.1 °F 45% 30.07 in 10.0 mi NNW 13.8 mph - N/A   Clear
7:35 AM 34.2 °F 25.2 °F 14.9 °F 45% 30.08 in 10.0 mi NNW 12.7 mph - N/A   Clear
7:55 AM 33.3 °F 25.1 °F 14.9 °F 47% 30.10 in 10.0 mi NNW 10.4 mph - N/A   Clear
8:15 AM 34.0 °F 25.0 °F 14.9 °F 46% 30.10 in 10.0 mi NNW 12.7 mph - N/A   Clear
8:35 AM 35.2 °F 25.8 °F 15.3 °F 44% 30.11 in 10.0 mi NNW 15.0 mph - N/A   Clear
8:55 AM 37.4 °F 28.2 °F 15.8 °F 41% 30.12 in 10.0 mi NNW 16.1 mph - N/A   Clear
9:15 AM 39.9 °F 32.5 °F 16.3 °F 38% 30.14 in 10.0 mi NNW 12.7 mph - N/A   Clear
9:35 AM 43.3 °F 36.5 °F 16.7 °F 34% 30.14 in 10.0 mi North 13.8 mph 18.4 mph N/A   Clear
9:55 AM 45.1 °F 38.1 °F 17.1 °F 33% 30.15 in 10.0 mi NNW 16.1 mph - N/A   Clear
10:15 AM 47.8 °F - 16.9 °F 29% 30.17 in 10.0 mi North 15.0 mph 20.7 mph N/A   Clear
10:35 AM 50.0 °F - 16.9 °F 27% 30.18 in 10.0 mi North 17.3 mph - N/A   Clear
10:55 AM 50.4 °F - 16.9 °F 27% 30.19 in 10.0 mi North 18.4 mph 23.0 mph N/A   Clear
11:15 AM 52.2 °F - 16.3 °F 24% 30.20 in 10.0 mi North 17.3 mph - N/A   Clear
11:35 AM 54.3 °F - 16.5 °F 23% 30.19 in 10.0 mi North 12.7 mph 21.9 mph N/A   Clear
11:55 AM 55.8 °F - 15.6 °F 21% 30.18 in 10.0 mi North 16.1 mph 20.7 mph N/A   Clear
12:15 PM 55.9 °F - 16.0 °F 21% 30.18 in 10.0 mi North 16.1 mph 25.3 mph N/A   Clear
12:35 PM 57.2 °F - 15.6 °F 20% 30.17 in 10.0 mi North 12.7 mph 21.9 mph N/A   Clear
12:55 PM 57.6 °F - 14.9 °F 19% 30.16 in 10.0 mi North 16.1 mph 21.9 mph N/A   Clear
1:15 PM 57.9 °F - 15.6 °F 19% 30.15 in 10.0 mi North 16.1 mph 26.5 mph N/A   Clear
1:35 PM 58.6 °F - 14.9 °F 18% 30.15 in 10.0 mi North 19.6 mph 28.8 mph N/A   Clear
1:55 PM 58.3 °F - 14.5 °F 18% 30.15 in 10.0 mi North 15.0 mph 27.6 mph N/A   Clear
2:15 PM 58.5 °F - 14.9 °F 18% 30.14 in 10.0 mi North 17.3 mph 20.7 mph N/A   Clear
2:35 PM 59.0 °F - 14.4 °F 17% 30.15 in 10.0 mi North 15.0 mph 27.6 mph N/A   Clear
2:55 PM 59.2 °F - 14.4 °F 17% 30.15 in 10.0 mi North 18.4 mph 24.2 mph N/A   Clear
3:15 PM 59.4 °F - 13.8 °F 17% 30.15 in 10.0 mi North 18.4 mph 23.0 mph N/A   Clear
3:35 PM 59.7 °F - 12.9 °F 16% 30.15 in 10.0 mi North 20.7 mph 27.6 mph N/A   Clear
3:55 PM 59.9 °F - 12.2 °F 15% 30.15 in 10.0 mi North 24.2 mph 29.9 mph N/A   Clear
4:15 PM 59.9 °F - 11.8 °F 15% 30.16 in 10.0 mi North 18.4 mph 25.3 mph N/A   Clear
4:35 PM 60.1 °F - 11.3 °F 15% 30.16 in 10.0 mi North 21.9 mph 27.6 mph N/A   Clear
4:55 PM 58.5 °F - 11.3 °F 16% 30.17 in 10.0 mi North 17.3 mph 23.0 mph N/A   Clear
5:15 PM 56.8 °F - 12.0 °F 17% 30.18 in 10.0 mi North 15.0 mph 19.6 mph N/A   Clear
5:35 PM 54.5 °F - 13.1 °F 19% 30.19 in 10.0 mi North 11.5 mph 18.4 mph N/A   Clear
5:55 PM 50.5 °F - 12.9 °F 22% 30.19 in 10.0 mi North 9.2 mph - N/A   Clear
6:15 PM 47.7 °F - 11.7 °F 23% 30.20 in 10.0 mi North 10.4 mph - N/A   Clear
6:35 PM 43.7 °F 37.7 °F 11.3 °F 27% 30.20 in 10.0 mi North 11.5 mph - N/A   Clear
6:55 PM 44.2 °F 40.3 °F 11.5 °F 26% 30.22 in 10.0 mi NNW 6.9 mph - N/A   Clear
7:15 PM 42.8 °F 38.6 °F 12.0 °F 29% 30.22 in 10.0 mi NNW 6.9 mph - N/A   Clear
7:35 PM 41.9 °F 36.9 °F 12.0 °F 30% 30.23 in 10.0 mi NW 8.1 mph - N/A   Clear
7:55 PM 37.8 °F 32.5 °F 11.3 °F 34% 30.23 in 10.0 mi NW 6.9 mph - N/A   Clear
8:15 PM 39.2 °F 35.0 °F 11.3 °F 32% 30.24 in 10.0 mi NNW 5.8 mph - N/A   Clear
8:35 PM 38.7 °F 35.2 °F 11.5 °F 33% 30.24 in 10.0 mi NNW 4.6 mph - N/A   Clear
8:55 PM 38.1 °F 31.7 °F 11.1 °F 33% 30.24 in 10.0 mi North 9.2 mph - N/A   Clear
9:15 PM 35.8 °F - 12.0 °F 38% 30.24 in 10.0 mi Calm Calm - N/A   Clear
9:35 PM 32.9 °F 29.8 °F 10.6 °F 40% 30.24 in 10.0 mi NW 3.5 mph - N/A   Clear
9:55 PM 37.4 °F 33.8 °F 11.5 °F 34% 30.24 in 10.0 mi North 4.6 mph - N/A   Clear
10:15 PM 35.1 °F 30.1 °F 12.0 °F 39% 30.25 in 10.0 mi North 5.8 mph - N/A   Scattered Clouds
10:35 PM 32.7 °F 27.3 °F 11.5 °F 41% 30.25 in 10.0 mi West 5.8 mph - N/A   Scattered Clouds
10:55 PM 34.9 °F 30.8 °F 11.3 °F 38% 30.25 in 10.0 mi North 4.6 mph - N/A   Scattered Clouds
11:15 PM 35.2 °F 27.6 °F 11.5 °F 37% 30.27 in 10.0 mi West 10.4 mph - N/A   Scattered Clouds
11:35 PM 28.4 °F 19.7 °F 10.8 °F 48% 30.26 in 10.0 mi West 9.2 mph - N/A   Scattered Clouds
11:55 PM 28.8 °F 20.2 °F 11.1 °F 48% 30.26 in 10.0 mi West 9.2 mph - N/A   Clear